Starlink 11471

operational
NORAD ID: 62225 Int'l Des: 2024-231 Owner: SPXS Country: US Constellation: starlink
LEOCIRCULAR

About Starlink 11471

Description loading...

Live Position

Loading 3D Globe...

Upcoming Passes

Altitude History

Altitude vs Time

uPlot chart will show altitude changes over time

Two-Line Element Set

1 62225U 24231H 25350.91457023 .00169610 00000-0 13752-2 0 9998
2 62225 53.1560 149.1147 0001061 87.7177 272.3963 15.69730867 60416
Epoch: Dec 16, 2025 • Age: 10 hours

Current Status

Altitude 360.5 km
Velocity 7.69 km/s
Sub-Earth Point -1.88°S, 123.91°E
Launch Date Dec 5, 2024
Age 1 years
Type internet

Technical Details

Classification Payload
Mass 960.00 kg
Dry Mass 910.00 kg
Total Mass 960.00 kg
Length 0.30 m
Diameter 4.10 m
Span 29.00 m
Shape Box + pan
Manufacturer SPXS
Bus Type Starlink V2MD
Phase Status In Orbit
Owner/State SPXS/US

Large Constellations

Loading constellations...